Weather History for Jackson, MS

Change the Weather History Date:

Wednesday, August 7, 2013

  Actual Average Record
Temperature  
Mean Temperature 87 °F 82 °F  
Max Temperature 99 °F 92 °F 102 °F (1947)
Min Temperature 75 °F 72 °F 62 °F (1900)
Degree Days  
Heating Degree Days 0 0  
Month to date heating degree days 0 0  
Since 1 June heating degree days 0 0  
Since 1 July heating degree days 0 0  
Cooling Degree Days 22 17  
Month to date cooling degree days 148 119  
Year to date cooling degree days 1389 1414  
Since 1 June cooling degree days 1071 1056  
Growing Degree Days 37 (Base 50)    
Moisture  
Dew Point 72 °F    
Average Humidity 67    
Maximum Humidity 94    
Minimum Humidity 40    
Precipitation  
Precipitation 0.00 in 0.15 in 1.96 in (1983)
Month to date precipitation 0.21 1.09  
Year to date precipitation 40.91 34.13  
Sea Level Pressure  
Sea Level Pressure 29.92 in    
Wind  
Wind Speed 4 mph (South)    
Max Wind Speed 10 mph    
Max Gust Speed 14 mph    
Visibility 10 miles    
Events      
T = Trace of Precipitation, MM = Missing Value Source: NWS Daily Summary

Daily Weather History Graph

Daily Weather History Graph

Search for Another Location

Airport:

Trip Planner

Search our weather history database for the weather conditions in past years. The results will help you decide how hot, cold, wet, or windy it might be!

Date:

Astronomy

Aug. 07, 2013 Rise Set
Actual Time 6:19 AM CDT 7:52 PM CDT
Civil Twilight 5:52 AM CDT 8:18 PM CDT
Nautical Twilight 5:21 AM CDT 8:50 PM CDT
Astronomical Twilight 4:48 AM CDT 9:23 PM CDT
Moon 7:01 AM CDT (8/7) 8:07 PM CDT (8/7)
Length of Visible Light 14h 25m
Length of Day
13h 33m
New Moon, 1% of the Moon is Illuminated
Aug 7
New Moon
Aug 14
First Quarter
Aug 20
Full
Aug 28
Last Quarter
Sep 5
New

Hourly Weather History & Observations

Time (CDT) Temp. Heat Index Dew Point Humidity Pressure Visibility Wind Dir Wind Speed Gust Speed Precip Events Conditions
12:54 AM 79.0 °F - 72.0 °F 79% 29.94 in 10.0 mi South 5.8 mph - N/A   Clear
1:54 AM 77.0 °F - 72.0 °F 84% 29.93 in 10.0 mi SSE 3.5 mph - N/A   Clear
2:54 AM 75.9 °F - 72.0 °F 87% 29.94 in 10.0 mi SSW 3.5 mph - 0.01 in   Clear
3:54 AM 75.0 °F - 72.0 °F 90% 29.92 in 10.0 mi SE 4.6 mph - N/A   Clear
4:54 AM 75.9 °F - 73.0 °F 91% 29.91 in 10.0 mi South 4.6 mph - 0.01 in   Clear
5:54 AM 75.9 °F - 73.0 °F 91% 29.92 in 10.0 mi Calm Calm - N/A   Clear
6:54 AM 75.9 °F - 73.9 °F 94% 29.94 in 9.0 mi Calm Calm - N/A   Clear
7:54 AM 79.0 °F - 73.9 °F 84% 29.95 in 10.0 mi Calm Calm - N/A   Clear
8:54 AM 84.0 °F 91.9 °F 75.0 °F 74% 29.97 in 10.0 mi WNW 4.6 mph - N/A   Clear
9:54 AM 88.0 °F 96.5 °F 73.9 °F 63% 29.98 in 10.0 mi WSW 4.6 mph - N/A   Clear
10:54 AM 91.0 °F 98.2 °F 72.0 °F 53% 29.97 in 10.0 mi Calm Calm - N/A   Partly Cloudy
11:54 AM 93.0 °F 100.7 °F 72.0 °F 50% 29.95 in 10.0 mi West 3.5 mph - N/A   Scattered Clouds
12:54 PM 91.9 °F 97.4 °F 70.0 °F 48% 29.93 in 10.0 mi West 4.6 mph - N/A   Mostly Cloudy
1:54 PM 96.1 °F 101.6 °F 69.1 °F 41% 29.92 in 10.0 mi Variable 4.6 mph - N/A   Scattered Clouds
2:54 PM 95.0 °F 101.3 °F 70.0 °F 44% 29.90 in 10.0 mi Variable 5.8 mph - N/A   Mostly Cloudy
3:54 PM 93.9 °F 99.1 °F 69.1 °F 44% 29.89 in 10.0 mi South 4.6 mph - N/A   Mostly Cloudy
4:54 PM 96.1 °F 101.6 °F 69.1 °F 41% 29.88 in 10.0 mi SW 3.5 mph - N/A   Mostly Cloudy
5:54 PM 96.1 °F 101.0 °F 68.0 °F 40% 29.88 in 10.0 mi Calm Calm - N/A   Scattered Clouds
6:54 PM 93.9 °F 98.6 °F 68.0 °F 43% 29.86 in 10.0 mi SSW 4.6 mph - N/A   Scattered Clouds
7:54 PM 88.0 °F 93.8 °F 71.1 °F 57% 29.87 in 10.0 mi SE 3.5 mph - N/A   Partly Cloudy
8:54 PM 84.0 °F 91.2 °F 73.9 °F 72% 29.88 in 10.0 mi SE 4.6 mph - 0.01 in   Partly Cloudy
9:54 PM 82.9 °F 89.4 °F 73.9 °F 74% 29.91 in 10.0 mi SSE 5.8 mph - N/A   Clear
10:54 PM 84.0 °F 90.2 °F 73.0 °F 69% 29.91 in 10.0 mi SSE 8.1 mph - N/A   Mostly Cloudy
11:54 PM 82.0 °F 87.9 °F 73.9 °F 76% 29.92 in 10.0 mi SE 8.1 mph - N/A   Partly Cloudy